CDT,Max TemperatureF,Mean TemperatureF,Min TemperatureF,Max Dew PointF,MeanDew PointF,Min DewpointF,Max Humidity, Mean Humidity, Min Humidity, Max Sea Level PressureIn, Mean Sea Level PressureIn, Min Sea Level PressureIn, Max VisibilityMiles, Mean VisibilityMiles, Min VisibilityMiles, Max Wind SpeedMPH, Mean Wind SpeedMPH, Max Gust SpeedMPH,PrecipitationIn, CloudCover, Events, WindDirDegrees
2013-3-1,76,59,41,29,19,10,62,23,9,30.31,30.23,30.13,10,10,10,18,6,23,0.00,0,,294
2013-3-2,73,60,46,26,21,12,40,23,14,30.46,30.33,30.26,10,10,10,17,8,20,0.00,0,,20
2013-3-3,82,65,47,47,32,23,60,34,13,30.29,30.13,29.96,10,10,10,27,14,32,0.00,0,,170
2013-3-4,94,76,57,55,43,26,80,43,10,29.94,29.82,29.71,10,10,9,21,11,24,0.00,0,,171
2013-3-5,73,64,55,57,39,24,86,45,23,30.33,30.14,29.77,10,10,6,37,13,43,0.00,0,,27
2013-3-6,71,57,43,41,20,12,47,25,11,30.45,30.31,30.20,10,10,10,16,8,20,0.00,0,,91
2013-3-7,81,67,53,61,52,42,77,62,39,30.19,30.11,30.01,10,10,10,24,13,28,0.00,4,,134
2013-3-8,80,74,67,63,61,58,84,70,50,30.08,30.00,29.91,10,10,9,24,15,29,0.00,4,,148
2013-3-9,94,82,69,64,63,57,81,61,30,29.92,29.73,29.56,10,9,7,28,19,36,0.00,1,,156
2013-3-10,78,70,61,64,39,24,81,38,15,30.12,29.88,29.58,10,10,9,37,17,43,0.00,1,,351
2013-3-11,76,63,49,28,22,16,42,23,11,30.20,30.11,30.01,10,10,8,16,6,20,0.00,0,,327
2013-3-12,84,67,50,41,28,18,61,28,9,30.19,30.10,30.03,10,10,10,17,10,20,0.00,0,,157
2013-3-13,82,68,53,50,43,35,69,45,19,30.38,30.28,30.21,10,10,10,23,10,28,0.00,0,,126
2013-3-14,84,70,55,54,48,39,93,55,21,30.37,30.28,30.17,10,10,10,21,12,29,0.00,0,,140
2013-3-15,86,72,58,56,51,44,86,53,24,30.26,30.11,29.96,10,10,10,25,14,29,0.00,0,,156
2013-3-16,89,75,61,60,54,49,81,53,26,29.99,29.84,29.71,10,10,10,23,14,26,0.00,0,,158
2013-3-17,95,80,64,63,55,41,90,58,15,29.78,29.71,29.61,10,9,6,18,8,23,0.00,1,,134
2013-3-18,99,82,64,63,45,21,87,42,7,29.86,29.76,29.66,10,10,6,20,10,23,0.00,0,,4
2013-3-19,95,79,63,65,52,37,73,43,22,29.98,29.86,29.73,10,10,8,22,9,27,0.00,0,,90
2013-3-20,80,71,62,65,57,50,81,60,36,30.16,30.03,29.86,10,9,5,23,13,31,T,6,Rain,70
2013-3-21,82,71,60,64,58,53,81,66,49,30.01,29.79,29.61,10,10,8,22,13,29,0.00,4,,147
2013-3-22,88,80,71,68,65,64,81,67,45,29.71,29.64,29.57,10,8,6,22,9,27,0.00,5,,133
2013-3-23,96,85,73,68,60,43,87,55,16,29.70,29.63,29.52,10,8,6,20,7,23,0.00,3,,108
2013-3-24,78,68,57,63,28,15,68,27,13,30.15,29.97,29.69,10,9,3,32,15,41,0.00,0,,4
2013-3-25,68,57,46,23,19,14,40,24,13,30.34,30.23,30.11,10,10,10,18,9,25,0.00,0,,87
2013-3-26,72,58,44,36,26,20,43,30,17,30.46,30.35,30.27,10,10,10,24,10,29,0.00,3,,126
2013-3-27,71,65,59,53,45,36,61,51,40,30.29,30.21,30.12,10,10,10,21,15,25,0.00,8,,152
2013-3-28,77,72,66,61,58,53,78,66,54,30.19,30.12,30.06,10,10,10,22,15,25,0.00,8,,150
2013-3-29,84,74,64,61,59,56,87,62,42,30.15,30.08,29.99,10,10,10,22,13,24,0.00,6,,144
2013-3-30,92,80,68,64,62,58,81,62,33,30.07,29.98,29.86,10,10,8,18,11,21,0.00,3,,147
2013-3-31,96,82,67,65,63,55,93,64,26,29.93,29.85,29.71,10,9,5,35,12,40,0.00,1,,133